SCP
-0 0 -0 0 0 0 1 3 1 0 0 1 1 0 0 0 0 0 0 0 0 0 0 0 1 0 1 1 1 1 0 0
-0 0 0 0 0 0 1 0 3 1 0 1 1 1 1 1 0 0 0 0 0 0 0 0 0 0 0 0 1 1 1 0
0 0 0 0 0 0 0 2 4 4 4 3 2 1 2 1 1 0 0 1 0 0 0 0 0 0 0 0 1 1 1 1
0 0 0 0 1 1 1 2 4 4 3 2 6 3 3 3 2 2 1 1 1 1 0 1 1 0 0 0 0 1 2 2
0 0 0 0 0 1 2 2 8 5 5 5 3 3 3 4 4 5 2 2 2 1 1 0 0 1 1 1 0 1 2 3
0 0 1 1 1 1 1 0 6 7 6 6 5 3 4 4 3 5 7 3 3 4 2 1 1 1 2 1 2 2 3 3
0 0 0 1 1 2 2 2 2 8 9 6 5 4 5 4 5 4 8 6 4 3 3 2 2 1 0 1 2 2 3 3
0 1 0 1 3 7 6 4 5 8 7 5 3 4 4 5 4 6 9 8 6 4 5 2 4 1 1 2 2 2 2 2
0 0 1 0 6 10 8 5 3 7 7 4 2 3 3 5 5 6 8 9 7 5 3 3 2 2 1 2 2 2 2 1
0 0 1 4 6 6 7 5 4 4 4 3 5 4 2 4 8 8 7 8 6 5 3 2 2 2 2 2 3 2 1 1
0 0 1 3 3 5 5 4 4 2 3 4 5 4 8 15 14 8 7 7 5 3 2 2 2 1 2 3 3 2 1 2
0 0 0 1 1 2 6 5 4 4 5 5 5 4 5 9 13 8 6 5 3 2 2 1 2 2 2 2 2 1 1 2
0 0 0 0 0 0 1 5 7 5 6 5 4 7 7 8 10 9 5 4 2 2 2 1 2 2 1 1 1 1 1 1
0 0 0 0 0 0 1 2 2 5 6 7 6 5 4 5 7 6 4 3 2 2 1 1 1 1 1 2 2 2 1 1
0 0 0 0 0 0 0 1 2 5 4 5 2 2 2 6 5 4 2 2 1 1 1 1 1 1 2 2 2 1 1 1
0 0 0 0 0 0 0 1 3 4 3 2 2 2 4 6 4 3 2 1 1 1 0 1 1 1 1 1 1 2 1 1
0 0 0 0 0 0 0 1 1 1 2 2 3 3 4 3 2 1 1 1 1 1 0 1 1 1 1 2 1 1 1 1
0 0 1 1 1 0 1 1 2 3 2 2 2 2 4 2 2 1 1 1 1 1 1 1 1 1 1 1 0 1 1 1
0 1 1 1 2 4 5 3 2 2 1 1 2 2 3 3 2 2 1 1 1 1 1 1 1 1 0 0 0 0 0 0
1 1 4 3 1 2 3 3 2 2 2 2 2 2 2 2 1 1 1 1 1 0 1 0 0 0 0 0 0 0 0 0
Wind_Speed_500mb
56 59 59 53 48 55 55 47 41 32 28 34 33 37 43 49 57 61 63 64 62 61 61 58 61 58 55 51 46 42 38 33
55 59 55 44 53 41 2 44 49 37 29 42 41 44 41 41 44 49 61 67 66 67 66 64 62 62 62 58 54 47 43 33
47 50 24 5 21 29 42 73 42 32 43 44 49 46 39 39 41 40 43 52 55 62 65 61 64 53 53 62 56 44 37 27
32 30 34 24 13 12 16 25 36 40 38 47 51 49 55 47 47 47 49 55 52 51 56 64 58 58 48 44 47 43 45 29
56 49 45 45 46 34 31 25 28 44 44 42 42 45 48 54 55 55 57 63 60 55 55 60 63 54 51 50 45 45 52 44
64 50 51 34 36 36 34 37 38 51 58 56 51 45 46 47 49 55 64 68 71 62 59 64 63 65 51 50 50 52 47 52
72 75 71 66 64 60 58 59 52 40 44 46 49 50 49 49 47 51 58 68 70 67 62 62 57 60 70 55 64 53 56 45
72 69 73 68 56 55 50 53 60 48 40 49 54 56 60 56 56 58 56 63 70 68 61 59 58 57 62 61 59 65 55 47
69 89 70 85 77 66 59 65 55 49 50 57 66 71 68 63 60 58 56 63 69 70 63 61 64 60 65 58 56 53 55 52
80 74 66 75 57 51 52 57 61 58 61 71 69 56 52 53 53 54 55 63 67 67 62 57 56 62 58 59 59 62 62 38
72 59 61 42 44 49 53 60 62 59 60 66 64 59 62 43 51 51 52 61 67 68 57 56 56 56 56 63 57 63 48 48
77 64 62 58 54 46 44 49 56 62 60 67 65 65 65 64 46 51 54 62 67 60 47 56 48 50 55 55 65 64 52 42
79 81 67 55 62 67 73 71 72 71 72 62 72 61 54 40 48 51 52 51 52 55 54 57 51 48 50 51 43 44 51 41
69 72 83 95 81 70 65 72 78 77 76 67 64 59 58 48 51 58 62 56 55 55 54 54 47 44 42 45 35 46 41 28
60 73 79 84 82 84 82 72 74 74 72 63 60 61 53 49 58 62 58 53 54 49 46 50 45 40 37 44 39 34 31 33
64 44 52 63 58 65 68 60 55 61 66 66 65 59 54 52 64 59 48 47 44 39 43 39 38 44 37 33 28 31 30 22
34 30 40 46 45 48 57 55 53 58 55 54 58 52 54 57 45 38 29 35 39 42 43 43 36 29 25 29 31 26 20 24
34 31 34 34 36 37 50 49 48 46 47 48 49 53 53 44 40 43 36 41 41 47 42 36 31 25 30 28 19 20 25 30
38 30 33 35 35 39 48 42 40 43 43 44 47 51 49 48 51 46 49 42 39 40 33 28 26 27 22 17 23 28 30 31
25 25 13 21 27 30 35 40 42 46 49 50 53 55 56 57 49 50 48 47 39 35 28 22 21 20 19 23 24 23 26 28
Wind_Direction_500mb
202 193 210 189 191 186 188 215 234 237 215 230 241 243 243 245 246 246 246 243 241 245 244 241 239 235 235 235 236 239 250 252
215 208 209 206 208 179 215 238 222 227 223 218 241 248 255 251 249 246 249 247 246 242 243 247 245 240 238 238 237 242 248 252
224 222 230 309 121 160 188 198 212 220 210 208 222 242 257 264 268 265 255 253 250 246 239 237 250 244 246 241 241 245 252 248
238 245 238 252 248 225 204 222 239 247 233 215 220 228 229 250 260 266 270 267 261 250 243 231 224 247 247 242 237 234 248 251
234 240 249 254 263 252 240 220 236 249 248 246 229 232 234 227 245 254 265 266 259 258 245 233 227 229 243 240 236 223 226 236
230 228 234 240 234 236 246 239 244 247 253 255 251 238 237 249 240 235 245 255 258 248 243 235 226 220 229 225 230 221 225 228
240 238 244 248 249 247 242 241 231 236 247 246 244 243 248 251 243 251 236 249 254 250 238 226 231 226 220 229 225 230 226 235
255 234 228 234 237 224 223 234 234 235 243 250 254 251 254 255 256 237 242 240 251 248 235 230 224 228 223 225 228 230 229 231
254 244 245 240 233 221 230 241 239 236 231 233 246 252 253 256 257 258 230 237 241 245 238 227 221 227 225 225 226 226 228 231
253 250 236 232 225 220 225 236 244 248 247 252 248 252 255 256 250 251 229 233 237 237 244 223 225 219 224 219 225 221 228 227
260 259 244 227 219 225 240 249 251 255 258 252 252 250 233 229 228 239 232 228 233 240 242 218 222 221 218 218 223 224 230 225
260 264 257 252 244 234 239 245 249 251 256 249 240 241 237 224 221 230 234 228 229 236 230 199 211 222 216 222 229 231 213 225
242 253 255 254 254 257 259 255 248 250 254 247 236 228 231 220 217 220 231 233 220 220 213 202 212 215 212 223 231 216 215 221
242 237 248 256 259 255 252 245 241 241 239 240 234 222 220 211 208 219 228 228 212 211 209 202 211 217 196 223 219 213 223 215
235 234 233 239 238 244 244 241 236 229 229 237 228 210 224 211 212 220 222 226 209 212 206 196 204 198 203 209 213 212 215 222
241 231 235 228 231 234 235 228 222 216 225 230 234 225 216 213 212 218 234 210 200 192 183 187 193 192 203 200 206 218 236 226
253 229 243 239 237 232 220 217 216 226 230 219 213 211 195 206 212 222 189 183 183 183 181 188 185 190 193 215 224 224 217 226
234 237 238 236 234 231 205 211 202 199 202 200 194 189 186 198 187 174 174 176 177 181 181 178 176 187 211 227 215 222 225 233
237 239 226 223 200 179 175 183 185 185 184 182 182 179 179 179 172 174 171 171 174 173 171 178 191 208 217 218 209 220 231 240
249 251 244 177 180 166 165 170 180 179 173 173 170 164 168 165 160 165 169 170 166 171 177 187 187 203 216 232 235 238 242 241
Wind_Speed_850mb
56 59 59 53 48 55 55 47 41 32 28 34 33 37 43 49 57 61 63 64 62 61 61 58 61 58 55 51 46 42 38 33
55 59 55 44 53 41 2 44 49 37 29 42 41 44 41 41 44 49 61 67 66 67 66 64 62 62 62 58 54 47 43 33
47 50 24 5 21 29 42 73 42 32 43 44 49 46 39 39 41 40 43 52 55 62 65 61 64 53 53 62 56 44 37 27
32 30 34 24 13 12 16 25 36 40 38 47 51 49 55 47 47 47 49 55 52 51 56 64 58 58 48 44 47 43 45 29
56 49 45 45 46 34 31 25 28 44 44 42 42 45 48 54 55 55 57 63 60 55 55 60 63 54 51 50 45 45 52 44
64 50 51 34 36 36 34 37 38 51 58 56 51 45 46 47 49 55 64 68 71 62 59 64 63 65 51 50 50 52 47 52
72 75 71 66 64 60 58 59 52 40 44 46 49 50 49 49 47 51 58 68 70 67 62 62 57 60 70 55 64 53 56 45
72 69 73 68 56 55 50 53 60 48 40 49 54 56 60 56 56 58 56 63 70 68 61 59 58 57 62 61 59 65 55 47
69 89 70 85 77 66 59 65 55 49 50 57 66 71 68 63 60 58 56 63 69 70 63 61 64 60 65 58 56 53 55 52
80 74 66 75 57 51 52 57 61 58 61 71 69 56 52 53 53 54 55 63 67 67 62 57 56 62 58 59 59 62 62 38
72 59 61 42 44 49 53 60 62 59 60 66 64 59 62 43 51 51 52 61 67 68 57 56 56 56 56 63 57 63 48 48
77 64 62 58 54 46 44 49 56 62 60 67 65 65 65 64 46 51 54 62 67 60 47 56 48 50 55 55 65 64 52 42
79 81 67 55 62 67 73 71 72 71 72 62 72 61 54 40 48 51 52 51 52 55 54 57 51 48 50 51 43 44 51 41
69 72 83 95 81 70 65 72 78 77 76 67 64 59 58 48 51 58 62 56 55 55 54 54 47 44 42 45 35 46 41 28
60 73 79 84 82 84 82 72 74 74 72 63 60 61 53 49 58 62 58 53 54 49 46 50 45 40 37 44 39 34 31 33
64 44 52 63 58 65 68 60 55 61 66 66 65 59 54 52 64 59 48 47 44 39 43 39 38 44 37 33 28 31 30 22
34 30 40 46 45 48 57 55 53 58 55 54 58 52 54 57 45 38 29 35 39 42 43 43 36 29 25 29 31 26 20 24
34 31 34 34 36 37 50 49 48 46 47 48 49 53 53 44 40 43 36 41 41 47 42 36 31 25 30 28 19 20 25 30
38 30 33 35 35 39 48 42 40 43 43 44 47 51 49 48 51 46 49 42 39 40 33 28 26 27 22 17 23 28 30 31
25 25 13 21 27 30 35 40 42 46 49 50 53 55 56 57 49 50 48 47 39 35 28 22 21 20 19 23 24 23 26 28
Wind_Direction_850mb
202 193 210 189 191 186 188 215 234 237 215 230 241 243 243 245 246 246 246 243 241 245 244 241 239 235 235 235 236 239 250 252
215 208 209 206 208 179 215 238 222 227 223 218 241 248 255 251 249 246 249 247 246 242 243 247 245 240 238 238 237 242 248 252
224 222 230 309 121 160 188 198 212 220 210 208 222 242 257 264 268 265 255 253 250 246 239 237 250 244 246 241 241 245 252 248
238 245 238 252 248 225 204 222 239 247 233 215 220 228 229 250 260 266 270 267 261 250 243 231 224 247 247 242 237 234 248 251
234 240 249 254 263 252 240 220 236 249 248 246 229 232 234 227 245 254 265 266 259 258 245 233 227 229 243 240 236 223 226 236
230 228 234 240 234 236 246 239 244 247 253 255 251 238 237 249 240 235 245 255 258 248 243 235 226 220 229 225 230 221 225 228
240 238 244 248 249 247 242 241 231 236 247 246 244 243 248 251 243 251 236 249 254 250 238 226 231 226 220 229 225 230 226 235
255 234 228 234 237 224 223 234 234 235 243 250 254 251 254 255 256 237 242 240 251 248 235 230 224 228 223 225 228 230 229 231
254 244 245 240 233 221 230 241 239 236 231 233 246 252 253 256 257 258 230 237 241 245 238 227 221 227 225 225 226 226 228 231
253 250 236 232 225 220 225 236 244 248 247 252 248 252 255 256 250 251 229 233 237 237 244 223 225 219 224 219 225 221 228 227
260 259 244 227 219 225 240 249 251 255 258 252 252 250 233 229 228 239 232 228 233 240 242 218 222 221 218 218 223 224 230 225
260 264 257 252 244 234 239 245 249 251 256 249 240 241 237 224 221 230 234 228 229 236 230 199 211 222 216 222 229 231 213 225
242 253 255 254 254 257 259 255 248 250 254 247 236 228 231 220 217 220 231 233 220 220 213 202 212 215 212 223 231 216 215 221
242 237 248 256 259 255 252 245 241 241 239 240 234 222 220 211 208 219 228 228 212 211 209 202 211 217 196 223 219 213 223 215
235 234 233 239 238 244 244 241 236 229 229 237 228 210 224 211 212 220 222 226 209 212 206 196 204 198 203 209 213 212 215 222
241 231 235 228 231 234 235 228 222 216 225 230 234 225 216 213 212 218 234 210 200 192 183 187 193 192 203 200 206 218 236 226
253 229 243 239 237 232 220 217 216 226 230 219 213 211 195 206 212 222 189 183 183 183 181 188 185 190 193 215 224 224 217 226
234 237 238 236 234 231 205 211 202 199 202 200 194 189 186 198 187 174 174 176 177 181 181 178 176 187 211 227 215 222 225 233
237 239 226 223 200 179 175 183 185 185 184 182 182 179 179 179 172 174 171 171 174 173 171 178 191 208 217 218 209 220 231 240
249 251 244 177 180 166 165 170 180 179 173 173 170 164 168 165 160 165 169 170 166 171 177 187 187 203 216 232 235 238 242 241